Big Rapids, MI

8:53 AM EST on December 14, 2019 (GMT -0500)
Roben-Hood

Weather History for KRQB - May, 2019

Change the Weather History Date:

Thursday, May 2, 2019

  Actual Average Record
Temperature  
Mean Temperature 44 °F -  
Max Temperature 46 °F 61 °F 82 °F (2013)
Min Temperature 41 °F 35 °F 22 °F (1986)
Degree Days  
Heating Degree Days 22    
Moisture  
Dew Point 43 °F    
Average Humidity 97    
Maximum Humidity 99    
Minimum Humidity 93    
Precipitation  
Precipitation 0.22 in - - ()
Sea Level Pressure  
Sea Level Pressure 30.11 in    
Wind  
Wind Speed 3 mph (East)    
Max Wind Speed 10 mph    
Max Gust Speed -    
Visibility 5 miles    
Events Rain    
Averages and records for this station are not official NWS values.
T = Trace of Precipitation, MM = Missing Value Source: NWS Daily Summary

Daily Weather History Graph

Daily Weather History Graph

Search for Another Location

Airport or City:

Astronomy

May. 02, 2019 Rise Set
Actual Time 6:33 AM EDT 8:45 PM EDT
Civil Twilight 6:01 AM EDT 9:17 PM EDT
Nautical Twilight 5:22 AM EDT 9:56 PM EDT
Astronomical Twilight 4:39 AM EDT 10:39 PM EDT
Moon 5:53 AM EDT (5/2) 6:25 PM EDT (5/2)
Length of Visible Light 15h 15m
Length of Day
14h 12m
Waning Crescent, 5% of the Moon is Illuminated
May 2
Waning Crescent
May 4
New
May 11
First Quarter
May 18
Full
May 26
Last Quarter

Hourly Weather History & Observations

Time (EDT) Temp. Windchill Dew Point Humidity Pressure Visibility Wind Dir Wind Speed Gust Speed Precip Events Conditions
12:15 AM 45.9 °F - 44.8 °F 96% 30.08 in 3.0 mi Calm Calm - N/A   Overcast
12:16 AM 45.9 °F - 44.8 °F 96% 30.08 in 3.0 mi Calm Calm - N/A   Overcast
12:35 AM 45.7 °F 42.7 °F 44.6 °F 96% 30.09 in 3.0 mi West 5.8 mph - N/A   Overcast
12:36 AM 45.7 °F 42.7 °F 44.6 °F 96% 30.09 in 3.0 mi West 5.8 mph - N/A   Overcast
12:55 AM 45.9 °F 43.6 °F 45.0 °F 97% 30.09 in 3.0 mi West 4.6 mph - N/A   Overcast
1:15 AM 45.5 °F 43.2 °F 44.6 °F 97% 30.09 in 2.0 mi West 4.6 mph - N/A   Overcast
1:16 AM 45.5 °F 43.2 °F 44.6 °F 97% 30.09 in 2.0 mi WNW 4.6 mph - N/A   Overcast
1:35 AM 45.5 °F - 44.6 °F 97% 30.09 in 3.0 mi Calm Calm - N/A   Overcast
1:55 AM 45.5 °F - 44.6 °F 97% 30.09 in 2.5 mi Calm Calm - N/A   Overcast
1:56 AM 45.5 °F - 44.6 °F 97% 30.09 in 2.5 mi Calm Calm - N/A   Overcast
2:15 AM 45.0 °F - 44.1 °F 97% 30.09 in 2.5 mi Calm Calm - N/A   Overcast
2:35 AM 45.0 °F - 44.2 °F 97% 30.09 in 2.5 mi Calm Calm - N/A   Overcast
2:55 AM 45.0 °F 42.6 °F 44.1 °F 97% 30.09 in 2.0 mi ESE 4.6 mph - N/A   Overcast
2:56 AM 45.0 °F 42.6 °F 44.1 °F 97% 30.09 in 2.0 mi ESE 4.6 mph - N/A   Overcast
3:35 AM 44.4 °F 42.9 °F 43.7 °F 97% 30.11 in 2.0 mi ESE 3.5 mph - N/A   Overcast
3:55 AM 44.2 °F 41.8 °F 43.7 °F 98% 30.11 in 2.0 mi ESE 4.6 mph - N/A   Overcast
3:56 AM 44.2 °F 41.8 °F 43.7 °F 98% 30.11 in 2.0 mi SE 4.6 mph - N/A   Overcast
4:15 AM 44.2 °F 41.8 °F 43.5 °F 97% 30.10 in 2.0 mi SE 4.6 mph - N/A   Overcast
4:16 AM 44.2 °F 41.0 °F 43.5 °F 97% 30.10 in 2.0 mi ESE 5.8 mph - N/A   Overcast
4:35 AM 43.7 °F 39.7 °F 42.8 °F 97% 30.10 in 1.8 mi East 6.9 mph - N/A   Overcast
4:36 AM 43.7 °F 40.3 °F 42.8 °F 97% 30.09 in 1.8 mi ESE 5.8 mph - N/A   Overcast
4:55 AM 43.2 °F 40.5 °F 42.4 °F 97% 30.10 in 2.0 mi SE 4.6 mph - N/A   Overcast
5:15 AM 42.8 °F 40.1 °F 42.1 °F 97% 30.10 in 2.0 mi SE 4.6 mph - N/A   Overcast
5:35 AM 42.3 °F 39.4 °F 41.5 °F 97% 30.11 in 1.8 mi ESE 4.6 mph - N/A   Overcast
5:55 AM 41.9 °F 38.2 °F 41.4 °F 98% 30.11 in 1.5 mi ESE 5.8 mph - N/A   Overcast
5:56 AM 41.9 °F 39.0 °F 41.4 °F 98% 30.11 in 1.5 mi ESE 4.6 mph - N/A   Overcast
6:15 AM 41.5 °F 37.1 °F 41.0 °F 98% 30.12 in 1.5 mi ESE 6.9 mph - N/A   Overcast
6:35 AM 41.4 °F 36.8 °F 41.0 °F 99% 30.12 in 0.8 mi SE 6.9 mph - N/A   Overcast
6:55 AM 41.4 °F 38.4 °F 41.0 °F 99% 30.13 in 0.8 mi ESE 4.6 mph - N/A   Overcast
6:56 AM 41.4 °F 37.6 °F 41.0 °F 99% 30.13 in 0.8 mi ESE 5.8 mph - N/A   Overcast
7:15 AM 41.2 °F 37.3 °F 41.0 °F 99% 30.12 in 1.0 mi ESE 5.8 mph - N/A   Overcast
7:16 AM 41.2 °F 38.2 °F 41.0 °F 99% 30.12 in 1.0 mi East 4.6 mph - N/A   Overcast
7:35 AM 41.2 °F 36.6 °F 41.0 °F 99% 30.12 in 1.0 mi ESE 6.9 mph - N/A   Overcast
7:55 AM 41.2 °F 35.0 °F 41.0 °F 99% 30.13 in 1.2 mi ESE 10.4 mph - N/A   Overcast
8:15 AM 41.4 °F 36.8 °F 41.0 °F 99% 30.14 in 5.0 mi SSE 6.9 mph - N/A   Overcast
8:16 AM 41.2 °F 36.6 °F 41.0 °F 99% 30.14 in 5.0 mi SE 6.9 mph - N/A   Overcast
8:35 AM 41.2 °F 36.6 °F 40.8 °F 99% 30.14 in 4.0 mi ESE 6.9 mph - N/A   Overcast
8:55 AM 41.4 °F 37.6 °F 41.0 °F 99% 30.14 in 1.8 mi East 5.8 mph - N/A   Overcast
9:15 AM 41.2 °F 36.6 °F 40.8 °F 99% 30.13 in 2.5 mi ESE 6.9 mph - N/A   Overcast
9:35 AM 41.7 °F 37.3 °F 41.2 °F 98% 30.14 in 4.0 mi East 6.9 mph - N/A   Overcast
9:36 AM 41.7 °F 38.0 °F 41.2 °F 98% 30.14 in 4.0 mi East 5.8 mph - N/A   Overcast
9:55 AM 41.5 °F 38.6 °F 41.0 °F 98% 30.14 in 5.0 mi SE 4.6 mph - N/A   Overcast
9:56 AM 41.5 °F 38.6 °F 41.0 °F 98% 30.14 in 4.0 mi SE 4.6 mph - N/A   Overcast
10:15 AM 41.4 °F 38.4 °F 41.0 °F 99% 30.14 in 7.0 mi ESE 4.6 mph - N/A   Overcast
10:16 AM 41.4 °F 38.4 °F 41.0 °F 99% 30.14 in 7.0 mi ESE 4.6 mph - N/A   Overcast
10:35 AM 42.1 °F 38.4 °F 41.5 °F 98% 30.14 in 10.0 mi ESE 5.8 mph - N/A   Overcast
10:55 AM 42.3 °F 39.4 °F 41.7 °F 98% 30.14 in 10.0 mi SE 4.6 mph - N/A   Overcast
10:56 AM 42.3 °F 39.4 °F 41.9 °F 99% 30.14 in 10.0 mi SE 4.6 mph - N/A   Overcast
11:15 AM 42.8 °F 40.1 °F 42.1 °F 97% 30.15 in 10.0 mi SSE 4.6 mph - N/A   Overcast
11:16 AM 42.8 °F 39.3 °F 42.3 °F 98% 30.15 in 10.0 mi SSE 5.8 mph - N/A   Overcast
11:35 AM 42.8 °F 40.1 °F 41.9 °F 97% 30.15 in 10.0 mi SE 4.6 mph - N/A   Overcast
11:55 AM 42.8 °F - 41.9 °F 97% 30.16 in 10.0 mi Calm Calm - N/A   Overcast
12:15 PM 43.0 °F - 42.1 °F 97% 30.16 in 5.0 mi Calm Calm - N/A   Overcast
12:16 PM 43.0 °F - 42.1 °F 97% 30.16 in 5.0 mi Calm Calm - N/A   Overcast
12:35 PM 43.5 °F 41.9 °F 42.6 °F 97% 30.15 in 5.0 mi East 3.5 mph - N/A   Overcast
12:55 PM 43.9 °F - 42.8 °F 96% 30.15 in 3.0 mi Calm Calm - N/A Rain Light Rain
12:56 PM 43.9 °F - 42.8 °F 96% 30.15 in 4.0 mi Calm Calm - N/A   Overcast
1:15 PM 44.2 °F - 43.2 °F 96% 30.14 in 5.0 mi Calm Calm - N/A   Overcast
1:35 PM 43.9 °F - 42.8 °F 96% 30.14 in 1.0 mi Calm Calm - 0.06 in   Unknown
1:36 PM 43.9 °F - 42.8 °F 96% 30.14 in 1.0 mi Calm Calm - 0.07 in   Unknown
1:55 PM 44.1 °F - 43.0 °F 96% 30.15 in 2.0 mi Calm Calm - 0.12 in   Overcast
1:56 PM 44.1 °F 42.5 °F 43.0 °F 96% 30.15 in 2.5 mi SSE 3.5 mph - 0.12 in   Overcast
2:15 PM 44.2 °F 41.0 °F 43.3 °F 97% 30.14 in 7.0 mi SSE 5.8 mph - 0.01 in Rain Light Rain
2:35 PM 44.6 °F 40.7 °F 43.5 °F 96% 30.12 in 7.0 mi East 6.9 mph - 0.02 in Rain Light Rain
2:36 PM 44.6 °F 41.4 °F 43.7 °F 97% 30.12 in 7.0 mi East 5.8 mph - 0.02 in Rain Light Rain
2:55 PM 44.8 °F 42.4 °F 43.7 °F 96% 30.11 in 10.0 mi East 4.6 mph - 0.03 in Rain Light Rain
2:56 PM 44.8 °F 41.6 °F 43.7 °F 96% 30.11 in 10.0 mi East 5.8 mph - 0.03 in Rain Light Rain
3:15 PM 45.3 °F 44.0 °F 43.9 °F 95% 30.12 in 10.0 mi ESE 3.5 mph - N/A Rain Light Rain
3:35 PM 45.3 °F 44.0 °F 43.9 °F 95% 30.11 in 10.0 mi ESE 3.5 mph - N/A Rain Light Rain
3:55 PM 45.5 °F - 44.1 °F 95% 30.12 in 10.0 mi Calm Calm - N/A   Overcast
3:56 PM 45.5 °F - 44.1 °F 95% 30.12 in 10.0 mi Calm Calm - N/A   Overcast
4:15 PM 45.5 °F - 44.1 °F 95% 30.11 in 10.0 mi Calm Calm - N/A   Overcast
4:16 PM 45.5 °F - 44.1 °F 95% 30.11 in 10.0 mi Calm Calm - N/A   Overcast
4:55 PM 46.0 °F 43.9 °F 44.4 °F 94% 30.09 in 10.0 mi ENE 4.6 mph - N/A   Overcast
4:56 PM 45.9 °F 44.6 °F 44.4 °F 95% 30.09 in 10.0 mi ENE 3.5 mph - N/A   Overcast
5:15 PM 46.2 °F 45.0 °F 44.6 °F 94% 30.09 in 10.0 mi East 3.5 mph - N/A   Overcast
5:16 PM 46.0 °F 44.8 °F 44.6 °F 95% 30.09 in 10.0 mi East 3.5 mph - N/A   Overcast
5:35 PM 46.4 °F 44.3 °F 44.6 °F 93% 30.08 in 10.0 mi ENE 4.6 mph - N/A Rain Light Rain
5:55 PM 46.4 °F 45.2 °F 44.8 °F 94% 30.09 in 3.0 mi NNE 3.5 mph - N/A Rain Light Rain
6:15 PM 46.4 °F 44.3 °F 45.0 °F 95% 30.09 in 5.0 mi North 4.6 mph - N/A Rain Light Rain
6:16 PM 46.4 °F 44.3 °F 45.0 °F 95% 30.09 in 5.0 mi North 4.6 mph - N/A Rain Light Rain
6:35 PM 46.4 °F 44.3 °F 45.1 °F 95% 30.09 in 5.0 mi North 4.6 mph - N/A Rain Light Rain
6:55 PM 46.4 °F 44.3 °F 45.1 °F 95% 30.08 in 5.0 mi NNE 4.6 mph - N/A   Light Drizzle
7:15 PM 46.4 °F - 45.5 °F 97% 30.08 in 4.0 mi Calm Calm - N/A   Overcast
7:35 PM 46.4 °F 45.2 °F 45.5 °F 97% 30.08 in 10.0 mi NE 3.5 mph - N/A   Overcast
7:36 PM 46.4 °F - 45.5 °F 97% 30.08 in 10.0 mi Calm Calm - N/A   Overcast
7:55 PM 46.4 °F - 45.5 °F 97% 30.07 in 10.0 mi Calm Calm - N/A   Overcast
7:56 PM 46.4 °F - 45.5 °F 97% 30.07 in 10.0 mi Calm Calm - N/A   Overcast
8:15 PM 46.4 °F - 45.5 °F 97% 30.07 in 4.0 mi Calm Calm - N/A Rain Light Rain
8:35 PM 46.4 °F - 45.1 °F 95% 30.07 in 2.5 mi Calm Calm - 0.01 in Rain Light Rain
8:36 PM 46.4 °F - 45.1 °F 95% 30.07 in 2.5 mi Calm Calm - 0.01 in Rain Light Rain
8:55 PM 46.2 °F - 45.1 °F 96% 30.08 in 3.0 mi Calm Calm - 0.01 in Rain Light Rain
8:56 PM 46.2 °F 45.0 °F 45.1 °F 96% 30.08 in 3.0 mi ENE 3.5 mph - 0.01 in Rain Light Rain
9:15 PM 45.9 °F 44.6 °F 45.0 °F 97% 30.08 in 7.0 mi NE 3.5 mph - N/A   Overcast
9:35 PM 45.7 °F 44.4 °F 44.8 °F 97% 30.08 in 7.0 mi NE 3.5 mph - N/A Rain Light Rain
9:36 PM 45.7 °F 44.4 °F 44.8 °F 97% 30.08 in 7.0 mi NE 3.5 mph - N/A Rain Light Rain
9:55 PM 45.7 °F 44.4 °F 44.8 °F 97% 30.08 in 2.5 mi NNE 3.5 mph - 0.04 in   Overcast
9:56 PM 45.7 °F 44.4 °F 44.8 °F 97% 30.08 in 2.5 mi NNE 3.5 mph - 0.04 in   Overcast
10:15 PM 45.5 °F - 44.6 °F 97% 30.09 in 4.0 mi Calm Calm - 0.01 in Rain Light Rain
10:16 PM 45.5 °F 44.2 °F 44.6 °F 97% 30.08 in 4.0 mi NE 3.5 mph - 0.01 in Rain Light Rain
10:35 PM 45.5 °F 44.2 °F 44.6 °F 97% 30.08 in 7.0 mi NNE 3.5 mph - 0.02 in   Drizzle
10:55 PM 45.5 °F - 44.6 °F 97% 30.08 in 7.0 mi Calm Calm - 0.02 in Rain Rain
10:56 PM 45.5 °F 44.2 °F 44.6 °F 97% 30.08 in 7.0 mi NNE 3.5 mph - 0.02 in Rain Rain
11:15 PM 45.5 °F - 44.6 °F 97% 30.08 in 10.0 mi Calm Calm - N/A Rain Light Rain
11:16 PM 45.5 °F 44.2 °F 44.6 °F 97% 30.08 in 10.0 mi NNE 3.5 mph - N/A Rain Light Rain
11:35 PM 45.5 °F 44.2 °F 44.6 °F 97% 30.08 in 10.0 mi NNE 3.5 mph - N/A   Overcast
11:55 PM 45.5 °F 44.2 °F 44.6 °F 97% 30.08 in 7.0 mi North 3.5 mph - N/A Rain Light Rain